FW8061 Weather Reports


time (UTC)temp
C
wind
direction
speed
KPH
gust
KPH
rain 1hr
cm
rain 24hr
cm
rain mn
cm
humidity
%
barometer
mb
20260506231020 8 254 3.2 6.4 0.00 0.00 0.00 74 1008.5
20260506230021 8 241 3.2 8.0 0.00 0.00 0.00 75 1008.5
20260506225039 8 297 1.6 4.8 0.00 0.00 0.00 75 1008.6
20260506224020 8 233 1.6 6.4 0.00 0.00 0.00 75 1008.6
20260506223021 8 242 3.2 8.0 0.00 0.00 0.00 75 1008.7
20260506222039 9 317 4.8 9.7 0.00 0.00 0.00 74 1008.7
20260506221017 9 302 3.2 6.4 0.00 0.00 0.00 74 1008.7
20260506220019 8 319 3.2 6.4 0.00 0.00 0.00 75 1008.7
20260506215018 8 219 3.2 9.7 0.00 0.00 0.00 75 1008.7
20260506214018 8 313 3.2 6.4 0.00 0.00 0.00 75 1008.6
20260506213018 8 315 3.2 6.4 0.00 0.00 0.00 77 1008.7
20260506212019 8 287 1.6 4.8 0.00 0.00 0.00 78 1008.6
20260506211020 8 274 1.6 4.8 0.00 0.00 0.00 79 1008.8
20260506210019 8 238 3.2 6.4 0.00 0.00 0.00 78 1009.0
20260506205019 8 232 3.2 6.4 0.00 0.00 0.00 79 1008.9
20260506204039 8 289 1.6 4.8 0.00 0.00 0.00 79 1008.9
20260506203020 8 305 3.2 6.4 0.00 0.00 0.00 78 1009.0
20260506202039 8 266 3.2 8.0 0.00 0.00 0.00 79 1009.0
20260506201016 8 316 4.8 11.3 0.00 0.00 0.00 78 1009.0
20260506200019 8 319 3.2 8.0 0.00 0.00 0.00 79 1009.0
20260506195020 8 273 1.6 3.2 0.00 0.00 0.00 79 1009.2
20260506194024 7 290 1.6 3.2 0.00 0.00 0.00 79 1009.3
20260506193023 7 266 3.2 4.8 0.00 0.00 0.00 80 1009.4
20260506192023 7 324 3.2 4.8 0.00 0.00 0.00 81 1009.4
20260506191045 7 313 4.8 8.0 0.00 0.00 0.00 81 1009.3
20260506190025 7 255 1.6 3.2 0.00 0.00 0.00 78 1009.3
20260506185024 7 0.0 0.0 0.00 0.00 0.00 79 1009.3
20260506184025 7 172 3.2 4.8 0.00 0.00 0.00 80 1009.1
20260506183024 7 196 1.6 4.8 0.00 0.00 0.00 83 1009.2
20260506182024 7 213 3.2 6.4 0.00 0.00 0.00 85 1009.1
20260506181024 7 206 3.2 6.4 0.00 0.00 0.00 87 1009.3
20260506180024 7 181 3.2 6.4 0.00 0.00 0.00 88 1009.5
20260506175045 7 209 1.6 3.2 0.00 0.00 0.00 86 1009.7
20260506174026 6 222 3.2 4.8 0.00 0.00 0.00 85 1009.7
20260506173025 6 237 1.6 3.2 0.00 0.00 0.00 88 1009.9
20260506172027 6 270 1.6 3.2 0.00 0.00 0.00 87 1010.0
20260506171025 6 233 1.6 3.2 0.00 0.00 0.00 88 1010.1
20260506170107 6 300 1.6 4.8 0.00 0.00 0.00 88 1010.2
20260506165026 6 273 3.2 4.8 0.00 0.00 0.00 87 1010.2
20260506164027 6 290 1.6 4.8 0.00 0.00 0.00 90 1010.3
20260506163026 6 318 3.2 6.4 0.00 0.00 0.00 90 1010.4
20260506162027 6 218 1.6 3.2 0.00 0.00 0.00 91 1010.4
20260506161026 6 222 1.6 4.8 0.00 0.00 0.00 90 1010.6
20260506160028 6 200 1.6 3.2 0.00 0.00 0.00 91 1010.7
20260506155028 6 214 3.2 4.8 0.00 0.00 0.00 92 1010.7
20260506154027 6 216 3.2 4.8 0.00 0.00 0.00 91 1010.7
20260506153027 6 214 1.6 3.2 0.00 0.00 0.00 92 1010.8
20260506152030 6 233 1.6 3.2 0.00 0.00 0.00 91 1011.0
20260506151027 6 204 1.6 4.8 0.00 0.00 0.00 91 1010.9
20260506150029 6 315 1.6 3.2 0.00 0.00 0.00 91 1011.0
20260506145028 6 267 0.0 3.2 0.00 0.00 0.00 91 1010.8
20260506144028 6 202 0.0 1.6 0.00 0.00 0.00 92 1010.7
20260506143048 6 209 3.2 4.8 0.00 0.00 0.00 92 1010.7
20260506142029 6 199 1.6 3.2 0.00 0.00 0.00 93 1010.8
20260506141029 6 196 1.6 3.2 0.00 0.00 0.00 93 1010.7
20260506140030 6 205 1.6 3.2 0.00 0.00 0.00 92 1010.7
20260506135029 6 216 0.0 3.2 0.00 0.00 0.00 92 1010.6
20260506134029 6 213 3.2 4.8 0.00 0.00 0.00 91 1010.6
20260506133029 6 208 3.2 6.4 0.00 0.00 0.00 93 1010.5
20260506132029 6 205 3.2 4.8 0.00 0.00 0.00 92 1010.6
20260506131030 6 192 3.2 8.0 0.00 0.00 0.00 93 1010.6
20260506130031 6 189 1.6 6.4 0.00 0.00 0.00 92 1010.5
20260506125030 6 207 3.2 4.8 0.00 0.00 0.00 91 1010.6
20260506124050 6 198 3.2 4.8 0.00 0.00 0.00 91 1010.6
20260506123031 6 248 3.2 4.8 0.00 0.00 0.00 90 1010.5
20260506122111 6 276 1.6 4.8 0.00 0.00 0.00 90 1010.5
20260506121031 6 276 3.2 6.4 0.00 0.00 0.00 89 1010.6
20260506120052 6 306 3.2 4.8 0.00 0.00 0.00 89 1010.7
20260506115032 7 300 3.2 4.8 0.00 0.00 0.00 89 1010.8
20260506114051 7 289 4.8 6.4 0.00 0.00 0.00 88 1011.0
20260506113036 7 258 1.6 4.8 0.00 0.00 0.00 89 1011.0
20260506112051 7 305 1.6 4.8 0.00 0.00 0.00 92 1010.9
20260506111054 7 222 1.6 4.8 0.00 0.00 0.00 92 1010.8
20260506110031 7 213 1.6 3.2 0.00 0.00 0.00 92 1010.7
20260506105038 7 210 1.6 3.2 0.00 0.00 0.00 90 1010.4
20260506104017 7 213 1.6 3.2 0.00 0.00 0.00 89 1010.3
20260506103032 8 207 3.2 6.4 0.00 0.00 0.00 89 1010.2
20260506102019 8 212 3.2 4.8 0.00 0.00 0.00 87 1010.1
20260506101037 8 216 3.2 4.8 0.00 0.00 0.00 84 1010.2
20260506100018 8 222 3.2 6.4 0.00 0.00 0.00 81 1010.1
20260506095018 9 216 3.2 6.4 0.00 0.00 0.00 78 1010.1
20260506094018 9 214 3.2 8.0 0.00 0.00 0.00 76 1010.1
20260506093018 9 253 1.6 4.8 0.00 0.00 0.00 76 1009.8
20260506092018 9 222 1.6 4.8 0.00 0.00 0.00 77 1009.8
20260506091019 9 234 3.2 6.4 0.00 0.00 0.00 76 1009.7
20260506090020 9 237 3.2 8.0 0.00 0.00 0.00 77 1009.4
20260506085019 9 226 3.2 6.4 0.00 0.00 0.00 77 1009.6
20260506084100 9 253 3.2 6.4 0.00 0.00 0.00 76 1009.7
20260506083041 9 243 3.2 8.0 0.00 0.00 0.00 76 1009.9
20260506082019 9 254 3.2 6.4 0.00 0.00 0.00 76 1009.8
20260506081039 9 246 3.2 8.0 0.00 0.00 0.00 76 1009.8
20260506073021 10 238 4.8 12.9 0.00 0.00 0.00 76 1009.8
20260506072020 10 222 3.2 8.0 0.00 0.00 0.00 76 1009.6
20260506071020 10 239 3.2 6.4 0.00 0.00 0.00 76 1009.5
20260506062021 10 210 4.8 11.3 0.00 0.00 0.00 77 1009.2
20260506061021 10 220 4.8 8.0 0.00 0.00 0.00 78 1009.2
20260506051042 10 210 6.4 14.5 0.00 0.00 0.00 80 1009.2
20260506045022 11 206 4.8 12.9 0.00 0.00 0.00 81 1009.0
20260506044044 11 200 6.4 11.3 0.00 0.00 0.00 80 1008.9
20260506043024 11 198 4.8 11.3 0.00 0.00 0.00 80 1008.6
20260506042017 11 192 4.8 8.0 0.00 0.00 0.00 80 1008.4
20260506041043 11 199 4.8 14.5 0.00 0.00 0.00 80 1008.3
20260506040018 11 203 4.8 12.9 0.00 0.00 0.00 79 1008.1
20260506035017 11 195 4.8 8.0 0.00 0.00 0.00 78 1007.9
20260506034017 11 196 4.8 11.3 0.00 0.00 0.00 77 1007.8
20260506033018 11 198 6.4 14.5 0.00 0.00 0.00 77 1007.5
20260506032018 11 211 6.4 9.7 0.00 0.00 0.00 77 1007.5
20260506031019 11 211 6.4 12.9 0.00 0.00 0.00 77 1007.4
20260506030018 11 208 8.0 14.5 0.00 0.00 0.00 76 1007.4
20260506025020 12 232 6.4 12.9 0.00 0.00 0.00 75 1007.5
20260506024019 12 223 6.4 12.9 0.00 0.00 0.00 74 1007.2
20260506023019 12 218 6.4 12.9 0.00 0.00 0.00 73 1007.4
20260506022039 12 237 6.4 14.5 0.00 0.00 0.00 73 1007.6
20260506021019 13 225 6.4 14.5 0.00 0.00 0.00 73 1007.5
20260506020017 13 228 6.4 16.1 0.00 0.00 0.00 72 1007.2
20260506015021 13 270 6.4 14.5 0.00 0.00 0.00 72 1007.1
20260506014018 13 245 4.8 12.9 0.00 0.00 0.00 72 1006.9
20260506013018 13 230 6.4 14.5 0.00 0.00 0.00 72 1006.8
20260506012021 13 225 6.4 14.5 0.00 0.00 0.00 73 1006.6
20260506011039 14 271 4.8 14.5 0.00 0.00 0.00 73 1006.5
20260506010018 15 271 3.2 9.7 0.00 0.00 0.00 70 1006.1
20260506005018 15 298 4.8 17.7 0.00 0.00 0.00 64 1005.6
20260506004018 16 298 4.8 14.5 0.00 0.00 0.00 58 1005.3
20260506003019 16 271 4.8 14.5 0.00 0.00 0.00 57 1005.1
20260506002023 16 302 6.4 12.9 0.00 0.00 0.00 56 1004.9
20260506001020 17 293 4.8 16.1 0.00 0.00 0.00 57 1004.7
20260506000020 17 317 6.4 16.1 0.00 0.00 0.00 57 1004.4
20260505235019 18 303 4.8 14.5 0.00 0.00 0.00 61 1004.3
20260505234039 18 265 3.2 9.7 0.00 0.00 0.00 57 1003.7
20260505233039 18 281 4.8 12.9 0.00 0.00 0.00 57 1003.4
20260505232038 18 296 4.8 12.9 0.00 0.00 0.00 57 1003.3